Regional Weather Roundup
Issued by NWS

Home | Current Version | Previous Version | Graphics & Text | Print | Product List | Glossary On
Versions: 1 2 3 4 5 6 7 8 9 10 11 12 13 14 15 16 17 18 19 20 21 22 23 24 25 26 27 28 29 30 31 32 33 34 35 36 37 38 39 40 41 42 43 44 45 46 47 48 49 50
000
ASUS43 KFSD 070610
RWRSD

WEATHER ROUNDUP FOR SOUTH DAKOTA
NATIONAL WEATHER SERVICE SIOUX FALLS SD
1200 AM CST WED DEC 07 2016

NOTE: "FAIR" INDICATES FEW OR NO CLOUDS BELOW 12,000 FEET WITH NO
SIGNIFICANT WEATHER AND/OR OBSTRUCTIONS TO VISIBILITY.


SDZ001>005-009-010-012>017-070700-
NORTHWEST AND NORTH CENTRAL SOUTH DAKOTA

CITY           SKY/WX    TMP DP  RH WIND       PRES   REMARKS
BUFFALO          N/A      1  -5  75 NW22      30.04R WCI -21
FAITH            N/A      2  -3  80 NW21      30.10R WCI -20
MOBRIDGE       CLOUDY     8  -2  63 NW25G35   30.04S WCI -13
$$

SDZ012>016-024>037-041>051-057-063-072>074-070700-
SOUTHWEST AND SOUTH CENTRAL SOUTH DAKOTA

CITY           SKY/WX    TMP DP  RH WIND       PRES   REMARKS
RAPID CTY ARPT CLOUDY     4  -3  73 NW17      30.12R WCI -16
PIERRE         CLOUDY    10   3  73 NW24G30   30.13R WCI -10
CUSTER         CLOUDY     0  -4  83 CALM      29.91R
ELLSWORTH AFB  CLEAR      6  -3  66 N16G26    30.10R WCI -12
PHILIP         CLEAR      6  -2  69 W10       30.17R WCI  -9
PINE RIDGE     CLOUDY     1  -2  87 E3        30.11R
SPEARFISH      CLOUDY     3  -6  66 W14       30.09R WCI -15
WINNER         FAIR      10   1  67 NW13      30.16R WCI  -5
$$

SDZ004>011-016>023-039-040-070700-
NORTHEAST SOUTH DAKOTA

CITY           SKY/WX    TMP DP  RH WIND       PRES   REMARKS
ABERDEEN       CLOUDY    10   1  67 W23G32    30.02R WCI -10
WATERTOWN      CLOUDY     8   3  80 W17G32    29.94S WCI -10
BROOKINGS      CLEAR      8   3  80 W22G30    29.97S WCI -12
SISSETON         N/A     12   4  70 NW29G38   29.91R WCI  -9
$$

SDZ017-020-022-023-036>040-048>070-070700-
SOUTHEAST SOUTH DAKOTA

CITY           SKY/WX    TMP DP  RH WIND       PRES   REMARKS
SIOUX FALLS    CLEAR     12   6  77 W20G28    30.05R WCI  -6
HURON          CLEAR      9   2  73 NW21G30   30.09R WCI -11
CHAMBERLAIN    CLEAR     11   5  74 W20G26    30.14R WCI  -7
MITCHELL       CLEAR     11   4  73 NW20      30.14R WCI  -7
YANKTON        CLEAR     12   3  67 W15G23    30.13R WCI  -4
$$

ABBREVIATIONS USED IN REMARKS
   TC - TEMPERATURE IN CELSIUS
  WCI - WIND CHILL INDEX
   HX - HEAT INDEX
  VSB - VISIBILITY





USA.gov is the U.S. government's official web portal to all federal, state and local government web resources and services.